Date String (YYYY-MM-DD hh:mm:ss) UTC,Instrument flags,Ambient pressure (hPa),Sample flow (lpm),Bypass flow (lpm),Sample temperature (°C),Ambient temperature (°C),ASC tube jacket temperature (°C),LED temperature (°C),Box temperature (°C),Sample RH (%),Span deviation,Mass concentration (μg/m³),Mass concentration (μg/m³),Mass concentration (μg/m³)
DateTimeUTC,F1_M11,P_M11,Q1_M11,Q2_M11,T1_M11,T2_M11,T3_M11,T4_M11,T5_M11,U1_M11,ZSPAN_M11,X0_M11,X2_M11,X1_M11
2021-11-12 11:00:00,,0830.5,5.01,0.00,21.9,21.1,00.0,31.0,23.6,12.6,0000.0,0009.01,0003.03,0001.91
2021-11-12 11:01:00,,0830.5,4.99,0.00,21.9,21.2,00.0,31.0,23.6,12.6,0000.0,0008.37,0003.03,0001.91
2021-11-12 11:02:00,,0830.5,5.01,0.00,21.9,21.2,00.0,30.9,23.7,12.6,0000.0,0008.16,0003.02,0001.93
2021-11-12 11:03:00,,0830.5,5.00,0.00,21.9,21.2,00.0,30.9,23.6,12.6,0000.0,0007.61,0003.02,0001.94
2021-11-12 11:04:00,,0830.5,5.01,0.00,21.9,21.2,00.0,30.9,23.6,12.6,0000.0,0007.68,0003.08,0001.94
2021-11-12 11:05:00,,0830.5,5.00,0.00,21.9,21.2,00.0,30.9,23.7,12.6,0000.0,0007.60,0003.14,0001.94
2021-11-12 11:06:00,,0830.6,4.99,0.00,21.9,21.2,00.0,30.9,23.7,12.6,0000.0,0007.77,0003.14,0001.94
2021-11-12 11:07:00,,0830.6,5.00,0.00,21.9,21.2,00.0,30.9,23.6,12.6,0000.0,0007.76,0003.14,0001.93
2021-11-12 11:08:00,,0830.6,5.00,0.00,21.8,21.1,00.0,30.9,23.6,12.6,0000.0,0008.49,0003.20,0001.92
2021-11-12 11:09:00,,0830.6,4.99,0.00,21.9,21.3,00.0,30.9,23.6,12.6,0000.0,0009.30,0003.19,0001.89
2021-11-12 11:10:00,,0830.6,4.99,0.00,22.0,22.1,00.0,31.0,23.8,12.5,0000.0,0009.94,0003.20,0001.91
2021-11-12 11:11:00,,0830.6,5.00,0.00,22.1,22.8,00.0,31.0,24.1,12.5,0000.0,0010.01,0003.21,0001.91
2021-11-12 11:12:00,,0830.6,4.99,0.00,22.2,22.8,00.0,31.0,24.2,12.4,0000.0,0009.80,0003.22,0001.91
2021-11-12 11:13:00,,0830.7,5.01,0.00,22.2,22.5,00.0,31.1,24.1,12.4,0000.0,0009.89,0003.25,0001.90
2021-11-12 11:14:00,,0830.7,5.01,0.00,22.2,22.3,00.0,31.1,24.1,12.4,0000.0,0010.06,0003.28,0001.90
2021-11-12 11:15:00,,0830.7,4.98,0.00,22.2,22.2,00.0,31.1,24.1,12.4,0000.0,0009.92,0003.26,0001.90
2021-11-12 11:16:00,,0830.8,5.00,0.00,22.2,22.1,00.0,31.1,24.1,12.3,0000.0,0010.97,0003.25,0001.91
2021-11-12 11:17:00,,0830.8,4.99,0.00,22.2,22.0,00.0,31.1,24.1,12.3,0000.0,0011.26,0003.29,0001.92
2021-11-12 11:18:00,,0830.7,5.01,0.00,22.2,21.9,00.0,31.1,24.1,12.3,0000.0,0011.46,0003.30,0001.94
2021-11-12 11:19:00,,0830.7,5.00,0.00,22.2,21.8,00.0,31.1,24.0,12.3,0000.0,0010.68,0003.26,0001.95
2021-11-12 11:20:00,,0830.7,4.99,0.00,22.2,21.8,00.0,31.1,24.0,12.3,0000.0,0010.41,0003.22,0001.96
2021-11-12 11:21:00,,0830.8,5.00,0.00,22.2,21.7,00.0,31.1,24.0,12.3,0000.0,0010.68,0003.19,0001.95
2021-11-12 11:22:00,,0830.8,5.01,0.00,22.2,21.7,00.0,31.1,24.0,12.3,0000.0,0010.54,0003.17,0001.95
2021-11-12 11:23:00,,0830.8,4.99,0.00,22.2,21.7,00.0,31.2,24.0,12.3,0000.0,0010.32,0003.16,0001.97
2021-11-12 11:24:00,,0830.8,5.01,0.00,22.2,21.7,00.0,31.2,24.1,12.3,0000.0,0010.47,0003.16,0001.99
2021-11-12 11:25:00,,0830.7,5.00,0.00,22.2,21.7,00.0,31.2,24.1,12.3,0000.0,0010.39,0003.11,0001.99
2021-11-12 11:26:00,,0830.7,4.99,0.00,22.3,21.7,00.0,31.2,24.1,12.3,0000.0,0010.36,0003.08,0002.00
2021-11-12 11:27:00,,0830.6,4.99,0.00,22.3,21.7,00.0,31.2,24.1,12.3,0000.0,0009.41,0003.07,0002.01
2021-11-12 11:28:00,,0830.6,5.00,0.00,22.3,21.7,00.0,31.2,24.1,12.3,0000.0,0009.26,0003.00,0002.00
2021-11-12 11:29:00,,0830.8,4.99,0.00,22.3,21.7,00.0,31.2,24.1,12.3,0000.0,0009.94,0003.06,0002.00
2021-11-12 11:30:00,,0830.9,5.00,0.00,22.3,21.7,00.0,31.2,24.1,12.3,0000.0,0010.63,0003.08,0002.01
2021-11-12 11:31:00,,0830.8,5.01,0.00,22.3,21.7,00.0,31.2,24.1,12.3,0000.0,0010.87,0003.10,0002.00
2021-11-12 11:32:00,,0830.8,5.00,0.00,22.3,21.7,00.0,31.2,24.0,12.3,0000.0,0010.51,0003.13,0002.00
2021-11-12 11:33:00,,0830.8,4.99,0.00,22.3,21.6,00.0,31.2,24.0,12.3,0000.0,0011.04,0003.14,0002.00
2021-11-12 11:34:00,,0830.8,5.00,0.00,22.2,21.6,00.0,31.2,24.0,12.3,0000.0,0011.01,0003.13,0001.98
2021-11-12 11:35:00,,0830.7,4.99,0.00,22.2,21.6,00.0,31.2,24.0,12.3,0000.0,0010.89,0003.13,0001.97
2021-11-12 11:36:00,,0830.8,5.00,0.00,22.2,21.6,00.0,31.2,24.0,12.3,0000.0,0011.03,0003.17,0001.96
2021-11-12 11:37:00,,0830.8,5.00,0.00,22.2,21.6,00.0,31.2,24.0,12.3,0000.0,0011.13,0003.21,0001.96
2021-11-12 11:38:00,,0830.9,4.99,0.00,22.2,21.6,00.0,31.2,24.0,12.3,0000.0,0010.89,0003.24,0001.96
2021-11-12 11:39:00,,0830.9,5.01,0.00,22.3,21.6,00.0,31.2,24.0,12.3,0000.0,0011.10,0003.28,0001.96
2021-11-12 11:40:00,,0830.9,5.00,0.00,22.3,21.6,00.0,31.2,24.0,12.3,0000.0,0011.14,0003.27,0001.96
2021-11-12 11:41:00,,0830.9,5.00,0.00,22.3,21.6,00.0,31.2,24.0,12.3,0000.0,0010.43,0003.27,0001.95
2021-11-12 11:42:00,,0830.9,4.99,0.00,22.3,21.6,00.0,31.2,24.1,12.4,0000.0,0009.34,0003.24,0001.96
2021-11-12 11:43:00,,0831.0,5.00,0.00,22.3,21.6,00.0,31.2,24.1,12.4,0000.0,0009.35,0003.23,0001.97
2021-11-12 11:44:00,,0831.0,4.99,0.00,22.3,21.6,00.0,31.2,24.1,12.4,0000.0,0008.88,0003.25,0001.97
2021-11-12 11:45:00,,0831.0,5.00,0.00,22.3,21.6,00.0,31.3,24.1,12.4,0000.0,0009.01,0003.28,0001.97
2021-11-12 11:46:00,,0831.1,5.01,0.00,22.3,21.6,00.0,31.3,24.1,12.4,0000.0,0009.09,0003.27,0001.96
2021-11-12 11:47:00,,0831.0,4.99,0.00,22.3,21.6,00.0,31.3,24.1,12.4,0000.0,0009.29,0003.26,0001.94
2021-11-12 11:48:00,,0830.9,5.01,0.00,22.3,21.6,00.0,31.3,24.1,12.4,0000.0,0010.23,0003.27,0001.94
2021-11-12 11:49:00,,0830.9,4.99,0.00,22.3,21.6,00.0,31.3,24.1,12.4,0000.0,0010.29,0003.25,0001.94
2021-11-12 11:50:00,,0830.9,5.01,0.00,22.3,21.6,00.0,31.3,24.1,12.5,0000.0,0009.64,0003.21,0001.95
2021-11-12 11:51:00,,0830.9,4.99,0.00,22.3,21.6,00.0,31.3,24.1,12.5,0000.0,0008.80,0003.18,0001.95
2021-11-12 11:52:00,,0831.0,5.00,0.00,22.3,21.6,00.0,31.3,24.1,12.5,0000.0,0009.24,0003.19,0001.95
2021-11-12 11:53:00,,0831.1,5.02,0.00,22.2,21.5,00.0,31.3,24.0,12.5,0000.0,0009.67,0003.24,0001.95
2021-11-12 11:54:00,,0831.0,4.99,0.00,22.3,21.5,00.0,31.3,24.0,12.6,0000.0,0009.59,0003.25,0001.95
2021-11-12 11:55:00,,0831.0,5.01,0.00,22.3,21.5,00.0,31.3,24.1,12.5,0000.0,0009.59,0003.24,0001.94
2021-11-12 11:56:00,,0831.0,4.99,0.00,22.3,21.5,00.0,31.3,24.0,12.5,0000.0,0009.99,0003.25,0001.95
2021-11-12 11:57:00,,0831.1,5.00,0.00,22.3,21.5,00.0,31.3,24.0,12.5,0000.0,0010.38,0003.26,0001.97
2021-11-12 11:58:00,,0831.1,5.00,0.00,22.3,21.5,00.0,31.3,24.1,12.6,0000.0,0011.26,0003.27,0002.00
2021-11-12 11:59:00,,0831.0,4.99,0.00,22.3,21.6,00.0,31.3,24.1,12.5,0000.0,0010.33,0003.25,0002.00
